| time (UTC) | temp C | wind direction | speed KPH | gust KPH | rain 1hr cm | rain 24hr cm | rain mn cm | humidity % | barometer mb |
| 20260506124017 | 14 | 315 | 3.2 | 9.7 | 0.03 | 2.29 | 1.07 | 71 | 1011.0 |
| 20260506123017 | 13 | 158 | 3.2 | 9.7 | 0.05 | 2.31 | 1.07 | 73 | 1011.0 |
| 20260506122017 | 13 | 315 | 3.2 | 8.0 | 0.03 | 2.29 | 1.04 | 70 | 1011.1 |
| 20260506121018 | 13 | 23 | 3.2 | 11.3 | 0.03 | 2.29 | 1.04 | 74 | 1011.0 |
| 20260506120017 | 13 | 338 | 1.6 | 6.4 | 0.03 | 2.31 | 1.04 | 74 | 1011.1 |
| 20260506115027 | 13 | 315 | 1.6 | 6.4 | 0.05 | 2.31 | 1.04 | 77 | 1011.1 |
| 20260506114017 | 13 | 45 | 3.2 | 12.9 | 0.05 | 2.31 | 1.04 | 78 | 1011.2 |
| 20260506113018 | 13 | 23 | 1.6 | 6.4 | 0.03 | 2.29 | 1.02 | 79 | 1011.1 |
| 20260506112017 | 13 | 338 | 3.2 | 4.8 | 0.05 | 2.29 | 1.02 | 80 | 1011.1 |
| 20260506111018 | 12 | 90 | 1.6 | 4.8 | 0.05 | 2.29 | 1.02 | 81 | 1011.2 |
| 20260506110017 | 12 | 338 | 3.2 | 9.7 | 0.08 | 2.29 | 1.02 | 80 | 1011.1 |
| 20260506105017 | 12 | 248 | 3.2 | 9.7 | 0.05 | 2.26 | 0.99 | 83 | 1011.0 |
| 20260506104017 | 12 | 0 | 1.6 | 4.8 | 0.05 | 2.26 | 0.99 | 85 | 1011.1 |
| 20260506103017 | 12 | 315 | 1.6 | 6.4 | 0.08 | 2.26 | 0.99 | 84 | 1011.2 |
| 20260506102017 | 12 | 90 | 3.2 | 8.0 | 0.05 | 2.24 | 0.99 | 84 | 1011.0 |
| 20260506101027 | 12 | 315 | 1.6 | 8.0 | 0.05 | 2.24 | 0.99 | 85 | 1010.9 |
| 20260506100017 | 12 | 315 | 3.2 | 6.4 | 0.05 | 2.21 | 0.97 | 86 | 1010.8 |
| 20260506095017 | 11 | 113 | 1.6 | 6.4 | 0.05 | 2.21 | 0.97 | 87 | 1010.8 |
| 20260506094018 | 11 | 338 | 1.6 | 4.8 | 0.08 | 2.21 | 0.97 | 88 | 1010.9 |
| 20260506093027 | 11 | 338 | 3.2 | 9.7 | 0.05 | 2.18 | 0.94 | 88 | 1010.7 |
| 20260506092017 | 10 | 338 | 3.2 | 11.3 | 0.08 | 2.18 | 0.94 | 89 | 1010.7 |
| 20260506091017 | 10 | 293 | 1.6 | 6.4 | 0.08 | 2.18 | 0.94 | 89 | 1010.7 |
| 20260506090027 | 10 | 315 | 1.6 | 9.7 | 0.08 | 2.16 | 0.91 | 89 | 1010.6 |
| 20260506085017 | 10 | 315 | 1.6 | 6.4 | 0.08 | 2.16 | 0.91 | 89 | 1010.6 |
| 20260506084017 | 10 | 338 | 1.6 | 6.4 | 0.08 | 2.13 | 0.89 | 89 | 1010.5 |
| 20260506083018 | 9 | 315 | 1.6 | 3.2 | 0.08 | 2.13 | 0.89 | 89 | 1010.5 |
| 20260506082017 | 9 | 315 | 1.6 | 4.8 | 0.08 | 2.11 | 0.89 | 89 | 1010.4 |
| 20260506081017 | 9 | 338 | 1.6 | 4.8 | 0.08 | 2.11 | 0.89 | 90 | 1010.2 |
| 20260506073027 | 9 | 315 | 1.6 | 6.4 | 0.10 | 2.06 | 0.84 | 90 | 1009.9 |
| 20260506072019 | 9 | 338 | 1.6 | 11.3 | 0.08 | 2.03 | 0.81 | 90 | 1009.8 |
| 20260506071017 | 9 | 0 | 1.6 | 12.9 | 0.10 | 2.03 | 0.81 | 90 | 1009.6 |
| 20260506062017 | 8 | 315 | 1.6 | 6.4 | 0.10 | 1.96 | 0.76 | 90 | 1009.4 |
| 20260506061017 | 8 | 0 | 1.6 | 8.0 | 0.10 | 1.93 | 0.74 | 90 | 1009.2 |
| 20260506051026 | 8 | 315 | 1.6 | 4.8 | 0.10 | 1.83 | 0.66 | 90 | 1008.6 |
| 20260506045019 | 9 | 0.0 | 3.2 | 0.13 | 1.80 | 0.64 | 90 | 1008.4 | |
| 20260506044019 | 9 | 293 | 1.6 | 6.4 | 0.13 | 1.78 | 0.61 | 90 | 1008.4 |
| 20260506043023 | 9 | 315 | 1.6 | 6.4 | 0.10 | 1.75 | 0.61 | 90 | 1008.4 |
| 20260506042017 | 9 | 0.0 | 4.8 | 0.10 | 1.73 | 0.58 | 90 | 1008.4 | |
| 20260506041018 | 9 | 0.0 | 4.8 | 0.13 | 1.73 | 0.58 | 90 | 1008.4 | |
| 20260506040017 | 9 | 23 | 1.6 | 8.0 | 0.13 | 1.70 | 0.56 | 90 | 1008.3 |
| 20260506035027 | 9 | 248 | 1.6 | 3.2 | 0.13 | 1.68 | 0.53 | 90 | 1008.4 |
| 20260506034017 | 9 | 0.0 | 3.2 | 0.10 | 1.68 | 0.51 | 90 | 1008.4 | |
| 20260506033028 | 9 | 0.0 | 4.8 | 0.13 | 1.68 | 0.51 | 90 | 1008.3 | |
| 20260506032017 | 9 | 0.0 | 3.2 | 0.13 | 1.65 | 0.51 | 90 | 1008.4 | |
| 20260506031017 | 9 | 0.0 | 3.2 | 0.13 | 1.63 | 0.48 | 90 | 1008.4 | |
| 20260506030017 | 9 | 315 | 1.6 | 6.4 | 0.13 | 1.60 | 0.46 | 90 | 1008.3 |
| 20260506025027 | 10 | 338 | 1.6 | 4.8 | 0.10 | 1.57 | 0.43 | 90 | 1008.4 |
| 20260506024017 | 10 | 270 | 1.6 | 4.8 | 0.13 | 1.57 | 0.43 | 90 | 1008.6 |
| 20260506023018 | 10 | 0.0 | 4.8 | 0.13 | 1.55 | 0.43 | 90 | 1008.7 | |
| 20260506022017 | 10 | 338 | 1.6 | 3.2 | 0.13 | 1.52 | 0.41 | 90 | 1008.6 |
| 20260506021017 | 10 | 0.0 | 1.6 | 0.10 | 1.50 | 0.38 | 90 | 1008.6 | |
| 20260506020017 | 10 | 0.0 | 4.8 | 0.10 | 1.47 | 0.36 | 90 | 1008.5 | |
| 20260506015017 | 10 | 338 | 1.6 | 3.2 | 0.13 | 1.47 | 0.36 | 90 | 1008.5 |
| 20260506014017 | 10 | 0.0 | 4.8 | 0.13 | 1.45 | 0.33 | 90 | 1008.4 | |
| 20260506013017 | 10 | 0.0 | 3.2 | 0.13 | 1.42 | 0.33 | 90 | 1008.5 | |
| 20260506012017 | 10 | 0.0 | 1.6 | 0.10 | 1.40 | 0.30 | 90 | 1008.5 | |
| 20260506011017 | 10 | 0 | 1.6 | 3.2 | 0.13 | 1.40 | 0.30 | 90 | 1008.5 |
| 20260506010119 | 10 | 0.0 | 1.6 | 0.13 | 1.37 | 0.36 | 90 | 1008.5 | |
| 20260506005527 | 10 | 0.0 | 1.6 | 0.10 | 1.35 | 0.25 | 90 | 1008.5 | |
| 20260506004527 | 10 | 0.0 | 4.8 | 0.13 | 1.35 | 0.25 | 90 | 1008.5 | |
| 20260506003517 | 10 | 0.0 | 4.8 | 0.13 | 1.32 | 0.23 | 90 | 1008.4 | |
| 20260506002527 | 10 | 315 | 1.6 | 6.4 | 0.13 | 1.30 | 0.23 | 90 | 1008.5 |
| 20260506001517 | 10 | 0.0 | 1.6 | 0.10 | 1.27 | 0.20 | 90 | 1008.6 | |
| 20260506000517 | 10 | 0.0 | 3.2 | 0.10 | 1.24 | 0.18 | 90 | 1008.6 | |
| 20260505235517 | 10 | 0.0 | 6.4 | 0.13 | 1.24 | 0.18 | 90 | 1008.6 | |
| 20260505234517 | 10 | 0.0 | 1.6 | 0.13 | 1.22 | 0.15 | 90 | 1008.6 | |
| 20260505233517 | 10 | 0.0 | 1.6 | 0.10 | 1.19 | 0.15 | 90 | 1008.6 | |
| 20260505232538 | 10 | 293 | 1.6 | 4.8 | 0.10 | 1.17 | 0.13 | 90 | 1008.7 |
| 20260505231517 | 10 | 338 | 1.6 | 4.8 | 0.13 | 1.17 | 0.13 | 90 | 1008.8 |
| 20260505230518 | 10 | 315 | 1.6 | 6.4 | 0.10 | 1.14 | 0.10 | 90 | 1008.7 |
| 20260505225519 | 10 | 338 | 1.6 | 8.0 | 0.10 | 1.12 | 0.08 | 89 | 1008.7 |
| 20260505224518 | 11 | 338 | 1.6 | 4.8 | 0.10 | 1.09 | 0.05 | 90 | 1008.7 |
| 20260505223518 | 11 | 315 | 1.6 | 8.0 | 0.10 | 1.09 | 0.05 | 89 | 1008.6 |
| 20260505222518 | 11 | 0.0 | 3.2 | 0.10 | 1.07 | 0.05 | 90 | 1008.6 | |
| 20260505221527 | 11 | 0.0 | 1.6 | 0.10 | 1.04 | 0.03 | 90 | 1008.6 | |
| 20260505220539 | 11 | 0.0 | 0.0 | 0.10 | 1.04 | 0.03 | 90 | 1008.7 | |
| 20260505220017 | 11 | 0.0 | 1.6 | 0.10 | 1.02 | 0.81 | 90 | 1008.7 | |
| 20260505215018 | 11 | 0.0 | 0.0 | 0.10 | 1.02 | 0.81 | 90 | 1008.8 | |
| 20260505214017 | 11 | 0.0 | 1.6 | 0.10 | 0.99 | 0.79 | 89 | 1008.8 | |
| 20260505213018 | 11 | 0.0 | 0.0 | 0.10 | 0.97 | 0.79 | 89 | 1008.9 | |
| 20260505212017 | 11 | 0.0 | 0.0 | 0.10 | 0.97 | 0.79 | 89 | 1008.9 | |
| 20260505211018 | 11 | 0.0 | 1.6 | 0.10 | 0.94 | 0.76 | 90 | 1008.9 | |
| 20260505210018 | 11 | 0.0 | 1.6 | 0.08 | 0.91 | 0.74 | 90 | 1008.9 | |
| 20260505205018 | 11 | 0.0 | 1.6 | 0.10 | 0.91 | 0.74 | 90 | 1009.0 | |
| 20260505204018 | 11 | 0.0 | 0.0 | 0.08 | 0.89 | 0.71 | 90 | 1008.8 | |
| 20260505203027 | 11 | 0.0 | 1.6 | 0.08 | 0.86 | 0.71 | 90 | 1008.8 | |
| 20260505202017 | 11 | 0.0 | 0.0 | 0.10 | 0.86 | 0.71 | 89 | 1008.7 | |
| 20260505201027 | 11 | 0.0 | 0.0 | 0.08 | 0.84 | 0.69 | 89 | 1008.6 | |
| 20260505200017 | 11 | 0.0 | 1.6 | 0.10 | 0.84 | 0.69 | 89 | 1008.5 | |
| 20260505195017 | 11 | 0.0 | 1.6 | 0.08 | 0.81 | 0.66 | 89 | 1008.4 | |
| 20260505194018 | 11 | 0.0 | 1.6 | 0.10 | 0.81 | 0.66 | 89 | 1008.3 | |
| 20260505193018 | 11 | 0.0 | 1.6 | 0.08 | 0.79 | 0.64 | 89 | 1008.1 | |
| 20260505192017 | 11 | 0.0 | 1.6 | 0.08 | 0.79 | 0.61 | 89 | 1008.0 | |
| 20260505191017 | 11 | 0.0 | 1.6 | 0.08 | 0.79 | 0.61 | 89 | 1008.1 | |
| 20260505190126 | 11 | 0.0 | 3.2 | 0.08 | 0.76 | 0.76 | 89 | 1008.0 | |
| 20260505185018 | 11 | 0.0 | 1.6 | 0.10 | 0.76 | 0.61 | 89 | 1007.9 | |
| 20260505184017 | 11 | 0.0 | 4.8 | 0.08 | 0.74 | 0.58 | 89 | 1007.8 | |
| 20260505183018 | 11 | 270 | 1.6 | 4.8 | 0.10 | 0.74 | 0.58 | 89 | 1007.7 |
| 20260505182017 | 12 | 0.0 | 3.2 | 0.10 | 0.71 | 0.56 | 89 | 1007.7 | |
| 20260505181017 | 12 | 0.0 | 1.6 | 0.10 | 0.71 | 0.56 | 89 | 1007.7 | |
| 20260505180017 | 12 | 0.0 | 1.6 | 0.10 | 0.69 | 0.53 | 89 | 1007.6 | |
| 20260505175017 | 12 | 0.0 | 3.2 | 0.10 | 0.66 | 0.51 | 89 | 1007.8 | |
| 20260505174019 | 12 | 0.0 | 6.4 | 0.13 | 0.66 | 0.51 | 89 | 1007.8 | |
| 20260505173017 | 12 | 0.0 | 3.2 | 0.13 | 0.64 | 0.51 | 89 | 1007.7 | |
| 20260505172017 | 12 | 0.0 | 1.6 | 0.13 | 0.61 | 0.48 | 89 | 1007.7 | |
| 20260505171018 | 12 | 0 | 1.6 | 6.4 | 0.13 | 0.61 | 0.48 | 89 | 1007.7 |
| 20260505170017 | 12 | 0.0 | 4.8 | 0.13 | 0.58 | 0.46 | 89 | 1007.8 | |
| 20260505165017 | 12 | 0.0 | 3.2 | 0.13 | 0.56 | 0.43 | 89 | 1007.8 | |
| 20260505164017 | 12 | 338 | 1.6 | 4.8 | 0.13 | 0.53 | 0.43 | 89 | 1007.8 |
| 20260505163018 | 12 | 0.0 | 3.2 | 0.13 | 0.51 | 0.41 | 89 | 1007.7 | |
| 20260505162018 | 12 | 0.0 | 4.8 | 0.15 | 0.51 | 0.38 | 89 | 1007.7 | |
| 20260505161017 | 12 | 338 | 1.6 | 4.8 | 0.18 | 0.51 | 0.38 | 89 | 1007.8 |
| 20260505153017 | 12 | 315 | 1.6 | 11.3 | 0.15 | 0.43 | 0.30 | 89 | 1007.7 |
| 20260505152017 | 12 | 338 | 3.2 | 9.7 | 0.13 | 0.41 | 0.25 | 89 | 1007.7 |
| 20260505151017 | 12 | 338 | 3.2 | 8.0 | 0.13 | 0.38 | 0.23 | 89 | 1007.8 |
| 20260505125017 | 13 | 0 | 1.6 | 8.0 | 0.05 | 0.18 | 0.05 | 88 | 1007.9 |